Location: Litvinovka
(48.6667°N, 34.3500°E)
Time: 01:31:49
(UTC+00:00)

Cosmos 1943 - Pass Details

Date: 18 September 2020
Orbit: 833 x 850 km, 71.0° (Epoch: 23 October)

Event Time Altitude Azimuth Distance (km) Brightness Sun altitude
Rises 16:19:32 0° 332° (NNW) 3,400 6.9 -5.9°
Reaches altitude 10° 16:21:58 10° 333° (NNW) 2,464 6.2 -6.3°
Maximum altitude 16:27:39 83° 61° (ENE) 854 3.2 -7.3°
Drops below altitude 10° 16:33:19 10° 151° (SSE) 2,460 5.2 -8.2°
Sets 16:35:45 0° 152° (SSE) 3,394 6.0 -8.6°
